Change the Weather History Date:

Wednesday, December 5, 2012

  Actual Average Record
Temperature  
Mean Temperature 47 °F 26 °F  
Max Temperature 68 °F 40 °F 68 °F (2012)
Min Temperature 26 °F 12 °F -17 °F (2013)
Degree Days  
Heating Degree Days 18 39  
Month to date heating degree days 103 193  
Since 1 July heating degree days 1582 1877  
Cooling Degree Days 0 0  
Month to date cooling degree days 0 0  
Year to date cooling degree days 1167 712  
Moisture  
Dew Point 31 °F    
Average Humidity 52    
Maximum Humidity 78    
Minimum Humidity 26    
Precipitation  
Precipitation T in 0.01 in 0.15 in (1983)
Month to date precipitation T 0.08  
Year to date precipitation 7.87 17.61  
Sea Level Pressure  
Sea Level Pressure 29.87 in    
Wind  
Wind Speed 8 mph (WSW)    
Max Wind Speed 22 mph    
Max Gust Speed 26 mph    
Visibility 9 miles    
Events Rain    
T = Trace of Precipitation, MM = Missing Value Source: NWS Daily Summary

Daily Weather History Graph

Daily Weather History Graph

Search for Another Location

Airport or City:

Trip Planner

Search our weather history database for the weather conditions in past years. The results will help you decide how hot, cold, wet, or windy it might be!

Date:

Astronomy

Dec. 05, 2012 Rise Set
Actual Time 7:08 AM MST 4:18 PM MST
Civil Twilight 6:36 AM MST 4:50 PM MST
Nautical Twilight 6:00 AM MST 5:25 PM MST
Astronomical Twilight 5:26 AM MST 5:59 PM MST
Moon 11:17 PM MST (12/5) 11:26 AM MST (12/5)
Length of Visible Light 10h 14m
Length of Day
9h 10m
Waning Gibbous, 59% of the Moon is Illuminated
Dec 5
Waning Gibbous
Dec 6
Last Quarter
Dec 13
New
Dec 19
First Quarter
Dec 28
Full

Hourly Weather History & Observations

Time (MST) Temp. Windchill Dew Point Humidity Pressure Visibility Wind Dir Wind Speed Gust Speed Precip Events Conditions
12:53 AM 28.0 °F 22.8 °F 21.9 °F 78% 30.11 in 10.0 mi West 4.6 mph - N/A   Clear
1:53 AM 30.0 °F - 21.9 °F 72% 30.09 in 10.0 mi Calm Calm - N/A   Clear
2:53 AM 32.0 °F 27.5 °F 25.0 °F 75% 30.06 in 10.0 mi SW 4.6 mph - N/A   Clear
3:53 AM 30.9 °F - 25.0 °F 79% 30.02 in 10.0 mi Calm Calm - N/A   Clear
4:53 AM 30.0 °F 24.1 °F 25.0 °F 82% 30.00 in 10.0 mi SW 5.8 mph - N/A   Clear
5:53 AM 30.0 °F 21.7 °F 25.0 °F 82% 29.98 in 10.0 mi WSW 9.2 mph - N/A   Clear
7:53 AM 46.9 °F - 28.9 °F 50% 29.94 in 10.0 mi SSW 12.7 mph - N/A   Clear
8:53 AM 50.0 °F - 28.9 °F 44% 29.91 in 10.0 mi South 11.5 mph - N/A   Clear
9:17 AM 51.8 °F - 30.2 °F 44% 29.86 in 0.8 mi South 9.2 mph - N/A   Haze
9:31 AM 53.6 °F - 32.0 °F 44% 29.85 in 4.0 mi SW 11.5 mph - N/A   Haze
9:53 AM 55.9 °F - 33.1 °F 42% 29.88 in 10.0 mi SSW 9.2 mph - N/A   Clear
10:53 AM 60.1 °F - 32.0 °F 35% 29.84 in 10.0 mi SW 13.8 mph - N/A   Clear
12:53 PM 66.0 °F - 30.9 °F 27% 29.76 in 10.0 mi WSW 16.1 mph 23.0 mph N/A   Clear
1:53 PM 66.9 °F - 32.0 °F 27% 29.72 in 10.0 mi West 16.1 mph - N/A   Clear
2:53 PM 66.0 °F - 30.9 °F 27% 29.72 in 10.0 mi West 12.7 mph - N/A   Clear
3:53 PM 57.0 °F - 34.0 °F 42% 29.76 in 10.0 mi Calm Calm - N/A   Clear
4:53 PM 59.0 °F - 33.1 °F 38% 29.78 in 10.0 mi NW 13.8 mph 19.6 mph N/A   Clear
5:53 PM 55.9 °F - 34.0 °F 44% 29.80 in 10.0 mi NW 8.1 mph - N/A   Clear
6:53 PM 53.1 °F - 34.0 °F 48% 29.80 in 10.0 mi WSW 9.2 mph - N/A   Overcast
7:53 PM 52.0 °F - 35.1 °F 53% 29.79 in 10.0 mi WSW 6.9 mph - N/A   Mostly Cloudy
8:53 PM 50.0 °F - 37.0 °F 61% 29.81 in 10.0 mi South 3.5 mph - 0.00 in Rain Light Rain
9:53 PM 48.0 °F - 37.0 °F 66% 29.81 in 10.0 mi Calm Calm - N/A   Overcast
10:53 PM 42.1 °F - 35.1 °F 76% 29.83 in 10.0 mi Calm Calm - N/A   Overcast
11:53 PM 44.1 °F 37.4 °F 35.1 °F 71% 29.86 in 10.0 mi North 13.8 mph 24.2 mph N/A   Overcast